[[{"header":{"parameterUnit":"m.s-1","parameterCategory":1,"la1":30.2991,"la2":30.254,"lo1":-89.0895,"lo2":-89.0444,"dy":0.0017,"dx":0.0017,"nx":28,"ny":28,"refTime":"2025-12-19T09:00:00:Z","depth":0,"parameterNumber":2,"parameterNumberName":"U-component_of_WINDS"},"data":[0,0,0,0,0,0,0,0,0,0,0,0,0,0,0,0,0,0,0,0,0,0,0,0,0,0,0,0,0,0,0,0,0,0,0,0,0,0,0,0,0,0,0,0,0,0,0,0,0,0,0,0,0,0,0,0,0,0,1.3533,1.3534,0,1.3595,1.3595,1.3596,1.3611,1.361,1.361,1.3609,1.3673,1.3675,1.3677,0,0,0,0,0,0,0,0,0,0,0,0,0,1.3429,1.3431,1.3533,1.3534,1.3534,1.3595,1.3595,1.3596,1.3611,1.361,1.361,1.3609,1.3673,1.3675,1.3678,0,0,0,0,0,0,0,0,0,0,0,0,0,1.3481,1.3432,1.3533,1.3549,1.3551,1.3594,1.3596,1.3597,1.3611,1.361,1.361,1.3609,1.3672,1.3675,1.3678,1.371,0,0,1.3688,1.3689,0,0,0,0,0,0,0,0,1.3478,1.3485,1.3546,1.3548,1.355,1.3594,1.3582,1.3635,1.3611,1.3588,1.3609,1.3609,1.3648,1.3653,1.3666,1.3713,1.3716,1.3688,1.369,1.3691,1.3692,0,0,0,0,0,0,0,1.3474,1.3482,1.3557,1.3547,1.3549,1.3554,1.356,1.3592,1.3621,1.359,1.3591,1.3598,1.3649,1.3663,1.3667,1.3717,1.3688,1.3691,1.3692,1.3694,1.3795,1.3796,0,0,0,0,0,0,1.3468,1.3479,1.3555,1.3559,1.3512,1.3556,1.3563,1.3581,1.362,1.3626,1.3599,1.3599,1.3658,1.3664,1.367,1.3711,1.3691,1.3694,1.3696,1.3794,1.3795,1.3796,0,0,0,0,0,0,1.3465,1.3474,1.3553,1.352,1.353,1.3558,1.3578,1.3582,1.3596,1.3627,1.3632,1.3608,1.3657,1.3665,1.37,1.3713,1.3695,1.3698,1.3793,1.3795,1.3796,1.3792,0,0,0,0,0,0,1.3462,1.3473,1.3485,1.352,1.3532,1.3582,1.3579,1.3584,1.3602,1.3602,1.3637,1.3642,1.3657,1.3695,1.3703,1.3717,1.3701,1.3792,1.3794,1.3795,1.3791,1.3793,1.3794,0,0,0,0,0,1.3459,1.3482,1.3486,1.3495,1.3547,1.3582,1.3589,1.3607,1.3603,1.3615,1.3635,1.3641,1.371,1.3699,1.3708,1.3723,1.3792,1.3793,1.3795,1.379,1.3793,1.3794,0,0,0,0,0,0,1.3448,1.3486,1.3491,1.3526,1.3551,1.3585,1.3601,1.3608,1.3635,1.3634,1.3655,1.3663,1.3696,1.3713,1.37,1.3757,1.3751,1.3755,1.3744,1.3747,1.3748,1.3743,1.3703,0,0,0,0,0,1.345,1.3475,1.3507,1.3535,1.3547,1.3572,1.3588,1.36,1.3626,1.3637,1.3659,1.3685,1.3713,1.3731,1.3758,1.3794,1.3802,1.3809,1.381,1.3812,1.3814,1.3836,1.3839,1.3802,1.3802,1.3802,0,0,1.3453,1.3477,1.3492,1.3533,1.3554,1.358,1.3581,1.3608,1.3628,1.3641,1.3675,1.3693,1.3723,1.3759,1.3776,1.3774,1.3827,1.3814,1.3815,1.3817,1.3838,1.3842,1.3845,1.3803,1.3803,1.3803,0,0,1.3473,1.3494,1.352,1.354,1.3572,1.3589,1.3595,1.3628,1.364,1.3675,1.3686,1.371,1.3758,1.3779,1.3796,1.3827,1.3833,1.3835,1.3844,1.3864,1.3867,1.387,1.3881,1.3885,1.3838,1.3838,1.3838,0,1.3474,1.3513,1.3532,1.3559,1.3578,1.3591,1.3618,1.3637,1.3676,1.3688,1.3686,1.3746,1.3768,1.3809,1.3817,1.383,1.3839,1.3831,1.3865,1.3868,1.3871,1.3882,1.3886,1.3838,1.3838,1.3838,1.3838,0,1.3513,1.354,1.3558,1.3595,1.3615,1.3642,1.3665,1.3684,1.3694,1.3711,1.3748,1.3774,1.3807,1.3818,1.3828,1.3862,1.386,1.3861,1.3856,1.3874,1.3885,1.3889,1.3838,1.3838,1.3838,1.3838,0,0,1.3526,1.3575,1.3581,1.3598,1.3635,1.3657,1.3685,1.3718,1.3733,1.376,1.3785,1.3826,1.3827,1.3847,1.386,1.3878,1.3901,1.3877,1.3878,1.3881,1.3941,1.3939,1.3944,1.3906,1.3907,1.3908,1.3938,0,1.3551,1.3601,1.3619,1.3661,1.3687,1.3701,1.3726,1.3752,1.3769,1.3794,1.3814,1.3842,1.3842,1.3854,1.3873,1.3894,1.3913,1.3892,1.393,1.3931,1.3921,1.395,1.3948,1.3976,1.3943,1.3943,1.3944,0,1.3586,1.3613,1.3657,1.3692,1.3704,1.3725,1.3758,1.3782,1.3812,1.3823,1.3846,1.3858,1.3889,1.3882,1.3926,1.3911,1.3928,1.3941,1.3942,1.3946,1.3938,1.3954,1.3985,1.3989,1.3951,1.395,1.395,0,1.3592,1.364,1.3673,1.3687,1.3728,1.3744,1.3761,1.3791,1.381,1.3838,1.3851,1.3883,1.39,1.3925,1.3946,1.3939,1.3988,1.3983,1.3999,1.3998,1.4008,1.4007,1.4041,1.4019,1.4019,1.4019,1.4019,0,1.3617,1.3643,1.3676,1.3696,1.3727,1.3748,1.3778,1.3797,1.3823,1.3848,1.3863,1.3886,1.3912,1.3939,1.3955,1.3989,1.3997,1.4008,1.4012,1.4006,1.4005,1.4017,1.4016,1.402,1.402,1.4019,1.4019,0,1.3628,1.3651,1.3688,1.3724,1.3734,1.3755,1.3786,1.3807,1.3826,1.3857,1.3866,1.3895,1.3928,1.3951,1.3993,1.4004,1.4041,1.4045,1.403,1.4032,1.4047,1.4045,1.409,1.4098,1.407,1.407,1.4071,0,1.3642,1.3663,1.3702,1.3719,1.3737,1.3765,1.3785,1.3808,1.3828,1.3865,1.3881,1.3915,1.3943,1.3994,1.402,1.4052,1.4057,1.4071,1.4062,1.4056,1.4058,1.4056,1.4059,1.4072,1.4072,1.4072,1.4072,0,1.3665,1.3676,1.3704,1.3736,1.3759,1.3786,1.3812,1.3826,1.3854,1.3876,1.391,1.3931,1.3975,1.4008,1.4043,1.4063,1.4072,1.4075,1.408,1.4075,1.4066,1.4071,1.4034,1.4073,1.4073,1.4073,1.4073,1.4073,1.3679,1.3698,1.3729,1.376,1.3783,1.3808,1.3829,1.3851,1.3879,1.3916,1.3928,1.3963,1.3994,1.4043,1.4062,1.4091,1.409,1.4098,1.41,1.4101,1.4101,1.4062,1.4097,1.4097,1.4097,1.4097,1.4097,0,1.3703,1.3724,1.3752,1.3789,1.3814,1.3821,1.3852,1.3872,1.3902,1.393,1.3958,1.3997,1.403,1.4059,1.4093,1.411,1.4116,1.4119,1.4117,1.4122,1.41,1.4091,1.4114,1.4114,1.4114,1.4114,1.4114,1.4114,1.3718,1.3752,1.3767,1.3812,1.3833,1.3867,1.3884,1.3908,1.3931,1.3974,1.4001,1.402,1.4049,1.4086,1.4117,1.4124,1.4137,1.4138,1.4147,1.4125,1.4123,1.4121,1.4114,1.4141,1.4141,1.4167,1.4168,1.4168]},{"header":{"parameterUnit":"m.s-1","parameterCategory":1,"la1":30.2991,"la2":30.254,"lo1":-89.0895,"lo2":-89.0444,"dy":0.0017,"dx":0.0017,"nx":28,"ny":28,"refTime":"2025-12-19T09:00:00:Z","depth":0,"parameterNumber":3,"parameterNumberName":"V-component_of_WINDS"},"data":[0,0,0,0,0,0,0,0,0,0,0,0,0,0,0,0,0,0,0,0,0,0,0,0,0,0,0,0,0,0,0,0,0,0,0,0,0,0,0,0,0,0,0,0,0,0,0,0,0,0,0,0,0,0,0,0,0,0,-6.5449,-6.5451,0,-6.5643,-6.5645,-6.5647,-6.5627,-6.5624,-6.5621,-6.5618,-6.5815,-6.5822,-6.583,0,0,0,0,0,0,0,0,0,0,0,0,0,-6.5062,-6.5069,-6.5449,-6.5452,-6.5454,-6.5643,-6.5645,-6.5648,-6.5628,-6.5624,-6.562,-6.5617,-6.5812,-6.5821,-6.5831,0,0,0,0,0,0,0,0,0,0,0,0,0,-6.524,-6.5071,-6.5449,-6.5467,-6.547,-6.5642,-6.5645,-6.5649,-6.5628,-6.5624,-6.5619,-6.5615,-6.5809,-6.582,-6.5832,-6.5998,0,0,-6.5869,-6.5875,0,0,0,0,0,0,0,0,-6.523,-6.5254,-6.5462,-6.5466,-6.547,-6.5606,-6.5581,-6.5766,-6.563,-6.5568,-6.5618,-6.5613,-6.5749,-6.5765,-6.5812,-6.6007,-6.6016,-6.587,-6.5878,-6.5883,-6.5886,0,0,0,0,0,0,0,-6.5218,-6.5246,-6.5526,-6.5465,-6.547,-6.5465,-6.5485,-6.5616,-6.5682,-6.5573,-6.5572,-6.5596,-6.575,-6.58,-6.5816,-6.6019,-6.587,-6.5881,-6.5888,-6.5893,-6.6363,-6.6368,0,0,0,0,0,0,-6.5201,-6.5236,-6.552,-6.5531,-6.5336,-6.5476,-6.5498,-6.5567,-6.568,-6.5693,-6.5599,-6.5594,-6.5782,-6.5802,-6.5823,-6.6027,-6.5883,-6.5894,-6.5901,-6.6358,-6.6365,-6.637,0,0,0,0,0,0,-6.5193,-6.5227,-6.5512,-6.5384,-6.5419,-6.5487,-6.5564,-6.5573,-6.5623,-6.57,-6.5711,-6.5638,-6.5779,-6.5806,-6.5956,-6.6033,-6.59,-6.5911,-6.6352,-6.636,-6.6367,-6.6435,0,0,0,0,0,0,-6.5182,-6.5224,-6.5287,-6.5385,-6.5426,-6.5641,-6.5569,-6.558,-6.5644,-6.5639,-6.574,-6.5752,-6.5777,-6.5938,-6.5968,-6.6048,-6.592,-6.6345,-6.6356,-6.6365,-6.6426,-6.6444,-6.646,0,0,0,0,0,-6.5168,-6.5297,-6.5291,-6.5325,-6.5507,-6.5646,-6.5669,-6.5697,-6.5651,-6.5716,-6.5765,-6.5749,-6.602,-6.5953,-6.5987,-6.6072,-6.6341,-6.6353,-6.6364,-6.6419,-6.6441,-6.6459,0,0,0,0,0,0,-6.5206,-6.531,-6.5304,-6.5469,-6.5549,-6.5642,-6.5725,-6.5719,-6.5813,-6.5804,-6.5834,-6.5856,-6.6008,-6.6054,-6.5978,-6.624,-6.6174,-6.6193,-6.6204,-6.6225,-6.6242,-6.6228,-6.593,0,0,0,0,0,-6.5233,-6.5337,-6.5423,-6.556,-6.5601,-6.5656,-6.5717,-6.5732,-6.5816,-6.5849,-6.5909,-6.5991,-6.6095,-6.6162,-6.6262,-6.6432,-6.6455,-6.6507,-6.6524,-6.6537,-6.6554,-6.665,-6.6675,-6.6409,-6.6409,-6.6409,0,0,-6.5291,-6.5361,-6.5425,-6.557,-6.5633,-6.5741,-6.5684,-6.58,-6.588,-6.5866,-6.6012,-6.606,-6.6152,-6.6314,-6.6388,-6.6357,-6.6633,-6.6553,-6.6563,-6.6572,-6.6665,-6.669,-6.6712,-6.6417,-6.6416,-6.6414,0,0,-6.5452,-6.5515,-6.5638,-6.5703,-6.5801,-6.5837,-6.5866,-6.5962,-6.5993,-6.614,-6.6133,-6.6229,-6.6406,-6.6474,-6.6531,-6.6721,-6.671,-6.6752,-6.684,-6.6933,-6.6954,-6.6973,-6.7043,-6.7067,-6.6768,-6.6768,-6.6768,0,-6.5511,-6.5674,-6.5701,-6.5819,-6.5884,-6.5877,-6.6003,-6.6064,-6.6189,-6.6234,-6.6198,-6.6423,-6.6485,-6.6664,-6.671,-6.6756,-6.6792,-6.6741,-6.6949,-6.6968,-6.6986,-6.7053,-6.7079,-6.6773,-6.6772,-6.6772,-6.6771,0,-6.5743,-6.5856,-6.5943,-6.6066,-6.614,-6.6261,-6.6307,-6.6379,-6.6388,-6.6428,-6.6579,-6.6654,-6.677,-6.6813,-6.6821,-6.6994,-6.6972,-6.6942,-6.6877,-6.7016,-6.7079,-6.7105,-6.678,-6.6778,-6.6776,-6.6775,0,0,-6.5932,-6.607,-6.6102,-6.6159,-6.6267,-6.6355,-6.6476,-6.6591,-6.6653,-6.674,-6.6843,-6.6995,-6.6969,-6.7034,-6.7051,-6.7133,-6.7281,-6.7093,-6.7096,-6.7127,-6.7478,-6.7501,-6.753,-6.7274,-6.7279,-6.7283,-6.7471,0,-6.6105,-6.632,-6.635,-6.6541,-6.6646,-6.6643,-6.6749,-6.6827,-6.6869,-6.6964,-6.7009,-6.7118,-6.7074,-6.7114,-6.7195,-6.7246,-6.7352,-6.7232,-6.7372,-6.7376,-6.735,-6.7563,-6.7587,-6.7761,-6.7496,-6.75,-6.7503,0,-6.6335,-6.6431,-6.6633,-6.6729,-6.6775,-6.6869,-6.6978,-6.7069,-6.7159,-6.7183,-6.7258,-6.7265,-6.7391,-6.732,-6.7496,-6.7414,-6.7473,-6.7506,-6.7514,-6.7529,-6.7449,-6.7585,-6.7816,-6.7843,-6.7542,-6.7539,-6.7536,0,-6.6456,-6.6634,-6.6779,-6.6827,-6.6943,-6.701,-6.7061,-6.7146,-6.7214,-6.7309,-6.7354,-6.7462,-6.7521,-6.7605,-6.7641,-6.7586,-6.7815,-6.7747,-6.784,-6.7839,-6.7889,-6.7886,-6.8135,-6.7924,-6.7924,-6.7923,-6.7923,0,-6.6647,-6.6771,-6.6835,-6.6924,-6.7063,-6.7096,-6.7234,-6.7282,-6.7359,-6.7458,-6.746,-6.7553,-6.7595,-6.7694,-6.7723,-6.7866,-6.7892,-6.7916,-6.7922,-6.7917,-6.7914,-6.7956,-6.7946,-6.793,-6.7929,-6.7928,-6.7926,0,-6.6805,-6.6852,-6.701,-6.7108,-6.7135,-6.7234,-6.7318,-6.7405,-6.7446,-6.7571,-6.7602,-6.7667,-6.7785,-6.7829,-6.7972,-6.7991,-6.8157,-6.8152,-6.8127,-6.8129,-6.822,-6.8212,-6.8506,-6.8548,-6.8309,-6.8311,-6.8313,0,-6.6924,-6.702,-6.7129,-6.7196,-6.725,-6.7358,-6.7428,-6.7464,-6.7537,-6.7648,-6.7722,-6.7839,-6.7935,-6.8123,-6.8183,-6.8293,-6.8293,-6.8388,-6.8309,-6.8301,-6.8296,-6.8291,-6.8302,-6.8403,-6.8406,-6.8407,-6.8409,0,-6.7132,-6.7151,-6.7252,-6.7364,-6.7447,-6.7536,-6.7622,-6.7677,-6.7726,-6.7808,-6.793,-6.8004,-6.8152,-6.8269,-6.8382,-6.8435,-6.8432,-6.8434,-6.8462,-6.8457,-6.844,-6.8453,-6.8169,-6.8427,-6.8425,-6.8424,-6.8423,-6.8422,-6.7276,-6.7362,-6.7453,-6.7566,-6.7635,-6.7716,-6.7803,-6.7857,-6.7958,-6.8082,-6.8097,-6.8228,-6.8317,-6.8469,-6.8527,-6.863,-6.8605,-6.8644,-6.8655,-6.8664,-6.8672,-6.8422,-6.8651,-6.865,-6.865,-6.865,-6.8649,0,-6.7485,-6.7544,-6.7648,-6.777,-6.786,-6.7849,-6.7944,-6.802,-6.8136,-6.8219,-6.8315,-6.8455,-6.8569,-6.8639,-6.8754,-6.8823,-6.8825,-6.8853,-6.8848,-6.8861,-6.8687,-6.8653,-6.885,-6.885,-6.885,-6.885,-6.885,-6.8849,-6.7605,-6.7751,-6.7782,-6.7962,-6.802,-6.8149,-6.8205,-6.8281,-6.8348,-6.8505,-6.8601,-6.8646,-6.8725,-6.8846,-6.8951,-6.8968,-6.9011,-6.9042,-6.9057,-6.8894,-6.8873,-6.8853,-6.8821,-6.905,-6.9051,-6.9223,-6.9225,-6.9226]}]]